Regional Weather Roundup
Issued by NWS

Home | Current Version | Previous Version | Graphics & Text | Print | Product List | Glossary On
Versions: 1 2 3 4 5 6 7 8 9 10 11 12 13 14 15 16 17 18 19 20 21 22 23 24 25 26 27 28 29 30 31 32 33 34 35 36 37 38 39 40 41 42 43 44 45 46 47 48 49 50
476
ASUS43 KIND 260709
RWRIN

WEATHER ROUNDUP FOR INDIANA
NATIONAL WEATHER SERVICE INDIANAPOLIS IN
300 AM EDT MON JUN 26 2017

NOTE: "FAIR" INDICATES FEW OR NO CLOUDS BELOW 12,000 FEET WITH NO
SIGNIFICANT WEATHER AND/OR OBSTRUCTIONS TO VISIBILITY.

* - STATION DOES NOT REPORT WEATHER SUCH AS PRECIPITATION OR FOG.

+ - STATION NOT QUALITY CONTROLLED BY THE NATIONAL WEATHER SERVICE.
    USE DATA WITH CAUTION...ESPECIALLY DEWPOINT AND RELATIVE
    HUMIDITY OBSERVATIONS.

INZ001>003-010>013-019-020-260800-
NORTHWEST INDIANA

CITY           SKY/WX    TMP DP  RH WIND       PRES   REMARKS
GARY /AIRPORT/ PTCLDY    57  49  75 S3        30.11S
KNOX *+        PTCLDY    55  39  54 W9        30.10S
LA PORTE +     PTCLDY    57  51  81 W3        30.10F
MICHIGAN CITY+ CLOUDY    61  50  67 NW9       30.09F
MONTICELLO +   CLEAR     56  49  80 W3        30.12S
VALPARAISO     CLEAR     56  50  80 W5        30.11S

$$

LMZ046-743>745-260800-
SOUTHERN LAKE MICHIGAN

STATION/POSITION TIME  TEMP    WIND        PRES    WAVE
                       AIR SEA DIR/SP/G            HT
                 (UTC) (F)     (DEG/KT/KT) (MB)    (FT)
BURNS HARBOR     0640   63     290/ 11/ 14 1019.3S
MICHIGAN CITY    0640   62     300/ 20/ 21   N/A
5NW MICH CITY    0700   63 66  310/ 16/ 21   N/A     6

$$

INZ004-005-014>016-021>024-260800-
NORTH CENTRAL INDIANA

CITY           SKY/WX    TMP DP  RH WIND       PRES   REMARKS
GOSHEN         CLEAR     55  51  86 SW6       30.08S
LOGANSPORT +   CLEAR     52  46  82 W6        30.13S
PERU/GRISSOM   CLEAR     55  51  84 W7        30.10F
ROCHESTER +    CLEAR     59  48  67 W5        30.10F
SOUTH BEND     CLOUDY    57  53  86 W7        30.10S
WARSAW +       CLEAR     54  46  76 W6        30.09S

$$

INZ006>009-017-018-025>027-260800-
NORTHEAST INDIANA

CITY           SKY/WX    TMP DP  RH WIND       PRES   REMARKS
AUBURN +       CLEAR     55  48  76 W3        30.08S
FORT WAYNE     PTCLDY    58  49  72 W10       30.09S
HUNTINGTON +   PTCLDY    55  49  81 W7        30.10S
KENDALLVILLE + CLEAR     55  52  89 CALM      30.08S

$$

INZ028-029-035-036-043>045-051>053-260800-
WEST CENTRAL INDIANA

CITY           SKY/WX    TMP DP  RH WIND       PRES   REMARKS
CRAWFORDSVL +  PTCLDY    53  49  89 W3        30.15S
GREENCASTLE +  PTCLDY    54  48  82 CALM      30.16F
LAFAYETTE      CLEAR     54  52  93 W3        30.14S
TERRE HAUTE    PTCLDY    56  50  80 CALM      30.16F

$$

INZ030>032-037>040-046>048-054>057-064-065-260800-
CENTRAL INDIANA

CITY           SKY/WX    TMP DP  RH WIND       PRES   REMARKS
CP ATTERBURY + CLEAR     52  50  93 CALM      30.16S
FRANKFORT +    CLOUDY    56  52  84 NW7       30.15F
GREENWOOD *+   PTCLDY    58  48  69 CALM      30.15F
INDIANAPOLIS   PTCLDY    57  49  74 W7        30.14F
-EAGLE CREEK   PTCLDY    59  49  69 W7        30.14S
KOKOMO +       CLEAR     56  50  80 W8        30.13S
MARION +       CLEAR     55  48  76 W7        30.12S
MT COMFORT *+  CLEAR     54  50  87 W5        30.14F
SHELBYVILLE    CLEAR     60  48  64 W6        30.14S
ZIONSVILLE +   CLEAR     55  49  82 W3        30.14F

$$

INZ033-034-041-042-049-050-058-059-260800-
EAST CENTRAL INDIANA

CITY           SKY/WX    TMP DP  RH WIND       PRES   REMARKS
MUNCIE         CLEAR     58  49  72 W7        30.12S
RICHMOND +     CLEAR     54  50  87 W5        30.14R

$$

INZ060-061-067>069-081>083-085>088-260800-
SOUTHWEST INDIANA

CITY           SKY/WX    TMP DP  RH WIND       PRES   REMARKS
EVANSVILLE     PTCLDY    60  52  74 CALM      30.18S
HUNTINGBURG *+ CLEAR     57  53  86 CALM      30.18S
WASHINGTON +   CLEAR     57  51  79 NW5       30.17S

$$

INZ062-063-066-070>080-084-089>092-260800-
SOUTH CENTRAL AND SOUTHEAST INDIANA

CITY           SKY/WX    TMP DP  RH WIND       PRES   REMARKS
BEDFORD +      CLEAR     57  48  72 CALM      30.16S
BLOOMINGTON    CLEAR     55  48  77 CALM      30.17S
MADISON *+     CLEAR     55  54  94 CALM      30.17S
NORTH VERNON + CLEAR     57  52  82 W3        30.16S
SEYMOUR +      CLEAR    N/A N/A N/A CALM      30.16R

$$





USA.gov is the U.S. government's official web portal to all federal, state and local government web resources and services.